Location: Aultman
(40.9284°N, 81.4173°W)
Time: 09:12:37
(UTC+00:00)

Okean-O - Pass Details

Date: 24 January 2021
Orbit: 638 x 641 km, 98.2° (Epoch: 02 March)

Event Time Altitude Azimuth Distance (km) Brightness Sun altitude
Rises 22:56:32 0° 123° (ESE) 2,937 5.7 -4.9°
Reaches altitude 10° 22:59:25 10° 103° (ESE) 2,033 4.7 -5.4°
Maximum altitude 23:02:11 17° 64° (ENE) 1,642 4.1 -5.9°
Drops below altitude 10° 23:04:58 10° 25° (NNE) 2,042 4.8 -6.3°
Sets 23:07:52 0° 5° (N) 2,956 5.8 -6.9°
